Showing default

LEMUR 2 DEMBITZ, 42842

Orbit data source: Space-Track

LEMUR 2 DEMBITZ, 42842 is a payload satellite owned by Spire (US) in SSO that was launched on Fri, 14 Jul 2017 UTC via a SOYUZ-2-1A launch vehicle from the Tyuratam Missile And Space Complex (TTMTR). Payload-class satellites include a variety of spacecraft equipped with specific instruments for various scientific and technological missions. These include communications satellites like Starlink; space stations such as the ISS; scientific satellites like the Hubble; Earth observation satellites from companies like Planet Labs, Umbra, and HawkEye 360; GPS; miniature CubeSats for education and research; and military/defense satellites.

Loading next visibility...
Identifier
42842, 2017-042T
Orbit
SSO
Country
Flag of USUS
Related business
Manufacturer
Spire/Glasgow
Mission
Operational Commercial Com/MetRO
Bus & Motor
CUBESAT 3U, Unknown motor
Mass
4 kg wet, 4 kg dry
Launch date (UTC)
2017-07-14 (9 years ago)
Launch vehicle
SOYUZ-2-1A
Launch site
Tyuratam Missile And Space Complex (TTMTR)
Object type
Payload
Rocket body
Debris
Shape & HBR
Box, 0.5 m
Radar Cross Section
0.093 m², Medium (>0.1 m² and < 1m²)

Expand to show TLE details & history
Last TLE update: 11 hours ago

TLE from 11 hours ago
0 LEMUR 2 DEMBITZ
1 42842U 17042T   26168.49296179  .00012577  00000-0  43118-3 0  9996
2 42842  97.3822 350.0943 0006728  27.8027 332.3572 15.30300449488392
Epoch: 2026-06-17T11:49Z
TLE epoch observation values (Epoch: 2026-06-17T11:49:51.898Z)
Latitude
-0.00005°
Longitude
-93.12179°
Altitude
473.935 km
Speed
7.631 km/s
True Right ascension
23h 20m 22s
True Declination
0° 00' 00"
Sunlit
Object was in daylight at epoch
Visualization orbit readout
Latitude
Unknown
Longitude
Unknown
Altitude
Unknown
Speed
Unknown
Apparent Right ascension
Unknown
Apparent Declination
Unknown
Sunlit
N/A
Visualization observer readout
Local Sidereal Time
09:49:12
Azimuth
Unknown
Elevation
Unknown
Doppler factor
Unknown
Orbital elements
Apogee altitude
476.475 km
Perigee altitude
467.258 km
Semi-major axis
6,850.003 km
Eccentricity
0.00067
Inclination
97.3822°
RAAN
350.0943°
Arg. of periapsis
27.8027°
True anomaly
332.3214°
Mean anomaly
332.3572°
Eccentric anomaly
332.3393°
Mean motion
3.82831 °/min
Orbital period
94.04 mins
BSTAR
0.00043118
Loading maneuver chart data...
Computing Atmospheric mass density...

Documentation

Showing up to 5 results
|